Total_Precipitation_Accumulation
1.98 2.30 1.92 1.17 0.98 0.89 0.76 0.69 0.61 0.60 0.58 0.67 0.71 0.76 0.83 0.80 0.77 0.82 0.93 1.02 1.06 1.07 1.17 1.47 1.92 2.25 2.72 3.22 3.42 3.53 3.56 3.80 4.15 4.11 3.85 3.63 3.37 3.10 2.82 2.69 2.57 2.35 2.22 2.11
1.93 1.67 1.02 0.77 0.85 0.95 0.94 0.87 0.69 0.64 0.59 0.73 0.74 0.77 0.77 0.78 0.78 0.80 0.89 0.98 0.99 0.97 1.11 1.39 1.72 2.08 2.36 2.97 3.35 3.43 3.62 3.85 4.10 4.03 3.89 3.77 3.70 3.49 3.19 3.00 2.72 2.53 2.38 2.23
1.43 1.03 0.82 1.02 1.13 1.12 1.06 0.90 0.70 0.72 0.80 0.79 0.80 0.90 0.74 0.71 0.69 0.70 0.86 0.97 0.96 0.93 1.07 1.28 1.52 1.86 2.05 2.46 2.95 3.18 3.33 3.67 3.92 4.10 4.41 4.40 4.20 3.84 3.34 3.02 2.81 2.63 2.60 2.47
1.20 0.83 0.97 1.27 1.30 1.13 1.08 0.72 0.70 0.75 0.99 1.07 0.89 1.16 0.83 0.70 0.68 0.70 0.88 0.98 1.01 0.97 1.04 1.24 1.41 1.57 1.81 2.08 2.53 2.95 3.21 3.46 3.65 3.80 4.02 4.16 3.99 3.58 3.17 2.91 2.85 2.86 2.79 2.74
1.21 0.86 1.05 1.35 1.15 1.03 0.96 0.67 0.79 0.88 1.07 1.13 0.83 1.02 0.89 0.68 0.77 0.78 0.88 0.99 1.06 1.13 1.19 1.27 1.32 1.35 1.55 1.82 2.27 2.69 3.00 3.29 3.44 3.56 3.64 3.82 3.88 3.73 3.52 3.23 3.07 3.02 2.94 2.82
0.91 0.87 1.11 1.20 1.00 1.01 1.03 1.08 1.23 1.35 1.74 1.82 0.84 0.83 0.89 0.89 1.00 0.89 0.84 0.94 1.04 1.25 1.37 1.34 1.33 1.30 1.42 1.63 1.94 2.36 2.72 3.11 3.34 3.42 3.62 3.67 3.59 3.61 3.56 3.24 3.14 3.06 3.10 3.01
1.16 1.12 1.09 1.20 1.48 1.44 1.55 2.14 2.72 2.75 2.58 1.59 0.56 0.66 0.99 0.94 0.96 0.98 0.97 0.99 1.02 1.13 1.27 1.28 1.29 1.28 1.36 1.54 1.72 2.01 2.25 2.63 3.06 3.24 3.36 3.48 3.50 3.40 3.42 3.31 3.13 3.04 2.93 2.89
1.30 1.35 1.06 1.18 1.63 1.74 1.59 1.91 2.13 1.89 1.31 0.77 0.51 0.76 0.97 0.87 0.84 0.86 0.91 0.95 1.02 1.13 1.22 1.26 1.27 1.32 1.41 1.47 1.58 1.79 1.95 2.16 2.60 2.95 3.03 3.10 3.26 3.25 3.11 3.09 2.98 2.90 2.77 2.68
1.08 1.08 0.83 0.92 1.13 1.32 1.51 1.47 1.21 1.51 1.09 0.84 0.75 0.71 0.68 0.58 0.63 0.71 0.73 0.79 0.96 1.11 1.16 1.23 1.28 1.35 1.39 1.41 1.48 1.64 1.79 1.86 2.12 2.55 2.78 2.90 2.96 2.92 2.72 2.62 2.57 2.56 2.58 2.55
1.07 1.12 0.87 0.91 1.20 1.34 1.33 1.20 1.30 1.82 1.58 1.14 0.72 0.63 0.84 0.75 0.75 0.76 0.78 0.83 0.95 1.08 1.15 1.25 1.30 1.27 1.27 1.30 1.38 1.52 1.59 1.66 1.79 2.03 2.31 2.59 2.76 2.70 2.64 2.49 2.28 2.19 2.16 2.17
0.89 1.18 1.15 1.10 1.33 1.24 1.11 1.30 1.42 1.46 1.25 1.28 0.94 0.87 0.91 0.85 0.84 0.87 0.92 0.93 0.99 1.06 1.19 1.30 1.33 1.28 1.23 1.25 1.33 1.43 1.45 1.48 1.56 1.70 1.86 2.05 2.36 2.47 2.48 2.40 2.15 1.99 1.90 1.85
0.75 1.07 1.17 0.95 0.77 0.72 0.86 1.00 1.21 1.61 1.27 1.00 1.01 0.92 0.69 0.67 0.73 0.81 0.94 0.96 0.97 1.00 1.08 1.19 1.24 1.21 1.20 1.25 1.34 1.43 1.43 1.44 1.42 1.48 1.56 1.68 1.91 2.14 2.25 2.34 2.19 1.96 1.86 1.74
1.01 1.24 1.31 1.11 0.97 0.84 0.87 0.79 0.94 1.27 1.47 1.12 1.10 0.92 0.60 0.55 0.61 0.72 0.87 0.93 0.94 0.94 0.94 0.99 1.04 1.10 1.14 1.21 1.30 1.41 1.40 1.34 1.30 1.31 1.34 1.47 1.62 1.80 1.91 1.98 2.06 1.94 1.90 1.76
1.23 1.19 1.10 1.12 1.00 0.92 0.85 0.70 0.82 1.45 1.77 1.10 0.84 0.79 0.65 0.66 0.70 0.75 0.81 0.87 0.89 0.90 0.84 0.85 0.92 0.99 1.03 1.11 1.20 1.26 1.30 1.28 1.27 1.24 1.20 1.28 1.37 1.54 1.65 1.65 1.75 1.77 1.79 1.79
0.92 1.02 0.70 0.59 0.47 0.53 0.62 0.66 0.75 1.09 1.07 1.07 0.76 0.68 0.76 0.79 0.83 0.83 0.77 0.76 0.74 0.76 0.77 0.81 0.85 0.87 0.92 0.96 1.01 1.09 1.16 1.18 1.20 1.19 1.16 1.17 1.19 1.28 1.37 1.36 1.41 1.50 1.56 1.67
0.60 0.81 0.65 0.56 0.39 0.43 0.53 0.54 0.58 0.71 0.77 0.81 0.64 0.70 0.71 0.71 0.66 0.65 0.64 0.62 0.65 0.70 0.75 0.75 0.75 0.76 0.76 0.79 0.86 0.93 1.03 1.09 1.12 1.11 1.11 1.10 1.10 1.14 1.22 1.21 1.21 1.27 1.36 1.48
0.54 0.67 0.83 0.66 0.41 0.53 0.70 0.67 0.68 0.74 0.77 0.80 0.91 0.86 0.65 0.61 0.62 0.65 0.62 0.56 0.58 0.61 0.65 0.66 0.66 0.69 0.71 0.72 0.74 0.81 0.89 0.95 1.00 1.03 1.05 1.08 1.12 1.13 1.17 1.16 1.16 1.22 1.31 1.43
0.51 0.65 0.99 0.79 0.54 0.72 0.70 0.52 0.57 0.64 0.70 0.71 0.77 0.72 0.65 0.65 0.64 0.62 0.59 0.57 0.55 0.55 0.60 0.64 0.63 0.63 0.64 0.65 0.64 0.68 0.74 0.82 0.88 0.92 0.99 1.02 1.08 1.09 1.08 1.11 1.14 1.19 1.25 1.34
0.35 0.70 1.13 0.94 0.67 0.50 0.41 0.39 0.59 0.67 0.73 0.69 0.67 0.63 0.60 0.52 0.46 0.49 0.49 0.53 0.59 0.59 0.60 0.63 0.62 0.60 0.58 0.56 0.58 0.61 0.68 0.73 0.78 0.87 0.98 1.03 1.08 1.11 1.11 1.15 1.16 1.18 1.23 1.27
0.30 0.58 1.11 0.98 0.82 0.57 0.47 0.32 0.35 0.52 0.77 0.54 0.54 0.59 0.58 0.52 0.61 0.62 0.55 0.54 0.54 0.52 0.53 0.56 0.54 0.51 0.54 0.57 0.59 0.63 0.70 0.73 0.80 0.89 0.99 1.04 1.09 1.18 1.20 1.19 1.19 1.15 1.18 1.24
0.48 0.71 0.92 0.80 0.78 0.50 0.41 0.26 0.24 0.68 0.93 0.56 0.55 0.59 0.58 0.65 0.76 0.69 0.61 0.58 0.56 0.55 0.54 0.52 0.50 0.52 0.60 0.65 0.66 0.69 0.74 0.82 0.89 0.94 1.00 1.03 1.02 1.09 1.14 1.12 1.12 1.13 1.11 1.10
0.45 0.55 0.55 0.57 0.77 0.63 0.38 0.32 0.61 0.82 0.55 0.49 0.48 0.51 0.55 0.59 0.56 0.57 0.59 0.58 0.54 0.56 0.53 0.49 0.50 0.53 0.54 0.60 0.66 0.69 0.75 0.80 0.81 0.85 0.94 1.03 1.03 1.03 1.07 1.09 1.09 1.12 1.08 1.03
0.43 0.56 0.62 0.63 0.73 0.66 0.54 0.58 0.61 0.53 0.47 0.43 0.46 0.48 0.48 0.51 0.51 0.53 0.55 0.53 0.50 0.53 0.52 0.49 0.49 0.48 0.46 0.49 0.56 0.68 0.74 0.76 0.79 0.81 0.88 0.97 1.00 1.02 1.07 1.07 1.07 1.07 1.04 0.98
0.35 0.28 0.39 0.47 0.47 0.43 0.42 0.39 0.40 0.41 0.44 0.41 0.41 0.40 0.40 0.45 0.46 0.48 0.48 0.48 0.47 0.47 0.49 0.50 0.47 0.45 0.46 0.47 0.48 0.56 0.63 0.68 0.73 0.78 0.82 0.87 0.95 0.98 0.99 0.99 1.02 1.06 1.08 1.04
0.36 0.30 0.34 0.42 0.37 0.34 0.34 0.33 0.35 0.33 0.29 0.26 0.25 0.27 0.33 0.39 0.42 0.45 0.48 0.50 0.51 0.51 0.50 0.52 0.50 0.46 0.47 0.45 0.46 0.47 0.50 0.57 0.64 0.71 0.75 0.78 0.83 0.91 0.93 0.93 0.99 1.06 1.08 1.14
0.40 0.44 0.52 0.54 0.41 0.45 0.42 0.30 0.25 0.24 0.22 0.22 0.22 0.21 0.24 0.31 0.36 0.36 0.39 0.45 0.51 0.52 0.50 0.49 0.46 0.44 0.46 0.45 0.47 0.48 0.49 0.53 0.58 0.63 0.68 0.72 0.76 0.80 0.84 0.85 0.89 0.98 1.01 1.08